Temperature
6 6 6 6 6 6 5 5 4 3 4 4 4 4 4 4 4 4 3 3 3 3 3 3 3 3 2 3 3 3 3 3 3 3 3 3 3 3
6 6 6 6 6 5 5 5 4 4 3 4 4 4 3 3 3 3 3 3 3 3 3 3 3 2 2 2 2 2 2 2 2 2 2 2 3 3
6 6 6 5 5 5 5 4 4 4 3 3 4 3 3 3 3 3 3 3 3 2 2 2 2 2 2 1 1 2 2 2 2 2 2 2 2 2
5 5 5 5 5 5 4 4 4 3 3 3 3 3 3 2 2 2 2 2 2 2 2 2 2 1 1 1 1 1 1 1 1 1 1 1 2 2
5 5 5 4 4 4 4 4 3 3 3 3 2 2 2 2 2 2 2 2 2 2 2 2 1 1 1 1 1 1 1 1 1 1 1 1 1 1
5 4 4 4 4 4 3 3 3 3 2 2 2 2 1 1 1 1 1 2 2 1 1 1 1 1 1 1 1 1 0 0 0 0 1 1 1 1
4 4 4 4 4 3 3 3 3 2 2 2 1 1 1 1 1 1 1 1 1 1 1 1 1 1 1 1 0 0 0 0 0 0 0 0 0 0
4 4 4 3 3 3 3 2 2 2 1 1 1 1 1 1 0 0 0 0 0 0 0 1 1 1 0 0 0 0 0 0 -0 -0 -0 -0 -0 -0
4 3 3 3 3 3 2 2 2 2 1 1 1 1 0 0 -0 -0 -0 -0 -0 -0 -0 0 0 0 0 -0 -0 -0 -0 -0 -0 -0 -0 -0 -0 -0
3 3 3 3 2 2 2 2 2 1 1 1 1 0 0 0 -0 -0 -0 -0 -0 -0 -1 -1 -0 -0 0 -0 -1 -1 -1 -1 -1 -1 -1 -1 -1 -0
3 2 2 2 2 2 2 1 1 1 1 1 0 0 0 0 0 -0 -0 -1 -1 -1 -1 -1 -1 -1 -0 -0 -1 -1 -1 -1 -1 -1 -1 -1 -1 -1
2 2 2 2 1 1 1 1 1 0 0 0 0 0 0 0 0 -0 -1 -1 -1 -1 -1 -1 -1 -2 -1 -1 -1 -1 -1 -1 -1 -1 -1 -1 -1 -1
2 2 2 1 1 1 1 0 0 0 -0 -0 -0 0 -0 -0 -0 -0 -1 -1 -1 -2 -1 -2 -2 -2 -2 -2 -1 -1 -1 -1 -1 -1 -1 -1 -1 -1
1 1 1 1 0 0 0 0 -0 -0 -0 -0 -0 -0 -0 -0 -0 -1 -1 -1 -1 -2 -2 -2 -2 -2 -2 -2 -2 -1 -1 -1 -1 -1 -1 -1 -1 -1
1 1 0 0 0 0 0 -0 -0 -0 -0 -1 -1 -1 -1 -1 -1 -1 -1 -1 -1 -2 -2 -2 -2 -2 -2 -3 -3 -2 -2 -1 -1 -1 -1 -1 -1 -1
0 0 0 -0 -0 -0 -0 -0 -1 -1 -1 -1 -1 -1 -1 -1 -1 -1 -1 -1 -1 -1 -2 -2 -2 -2 -2 -2 -3 -2 -2 -2 -2 -2 -2 -1 -1 -1
-0 -0 -0 -0 -0 -0 -1 -1 -1 -1 -1 -2 -1 -2 -1 -1 -1 -1 -1 -2 -2 -2 -2 -2 -2 -2 -2 -2 -2 -2 -2 -2 -2 -2 -2 -2 -1 -2
-0 -0 -1 -1 -1 -1 -1 -1 -1 -2 -2 -2 -2 -2 -2 -2 -2 -2 -2 -2 -2 -2 -2 -2 -2 -2 -2 -2 -2 -2 -2 -2 -2 -2 -2 -2 -2 -2
-1 -1 -1 -1 -1 -1 -2 -2 -2 -2 -2 -2 -2 -2 -2 -2 -2 -2 -2 -2 -2 -2 -2 -2 -2 -2 -3 -3 -2 -2 -3 -3 -2 -2 -2 -2 -2 -2
-1 -1 -1 -1 -2 -2 -2 -2 -2 -2 -2 -2 -2 -2 -2 -2 -2 -2 -2 -2 -2 -2 -2 -2 -3 -3 -3 -3 -3 -2 -2 -3 -3 -3 -2 -2 -2 -2
-1 -2 -2 -2 -2 -2 -2 -2 -2 -2 -3 -3 -3 -2 -2 -2 -2 -2 -2 -3 -3 -3 -3 -3 -3 -3 -3 -3 -3 -3 -2 -3 -3 -3 -3 -3 -2 -2
-2 -2 -2 -2 -2 -2 -2 -2 -3 -3 -3 -3 -3 -3 -2 -2 -2 -2 -3 -3 -3 -3 -3 -3 -3 -3 -3 -3 -3 -3 -3 -2 -2 -3 -3 -3 -3 -3
-2 -2 -2 -2 -2 -2 -3 -3 -3 -3 -3 -3 -3 -3 -3 -3 -3 -3 -3 -3 -3 -3 -3 -3 -3 -3 -3 -4 -4 -3 -3 -3 -2 -2 -2 -2 -3 -3
Wind_Speed
3 3 2 1 1 1 2 3 2 2 3 3 2 3 8 9 11 12 11 14 15 15 16 16 17 17 18 18 18 18 18 18 19 19 19 19 19 18
2 3 2 1 1 1 2 1 2 2 3 3 4 5 8 9 12 12 12 15 15 16 16 16 17 17 17 17 18 18 18 18 19 19 19 19 19 18
2 3 2 1 1 1 1 1 1 1 4 5 4 5 5 6 9 10 11 11 11 15 16 16 16 16 16 17 18 18 18 18 18 18 19 19 19 18
3 3 2 2 1 1 1 1 1 2 3 6 6 5 5 6 6 7 9 10 10 13 15 15 15 16 16 17 17 17 17 17 17 18 18 18 18 17
4 4 3 3 1 1 1 1 2 2 2 3 6 5 5 5 6 7 6 7 9 12 13 14 15 16 16 16 17 17 17 18 18 17 17 17 17 17
3 3 3 3 3 2 2 2 1 1 2 3 5 5 5 5 5 6 7 6 7 9 10 12 14 15 16 16 16 17 17 18 18 17 17 16 16 16
2 2 3 3 3 2 2 2 1 1 2 3 4 5 6 5 6 5 7 8 7 5 6 7 9 8 10 14 15 16 17 17 17 17 16 16 15 16
2 2 2 2 2 2 3 3 2 2 3 3 4 5 6 6 6 6 7 8 6 4 6 8 6 6 8 9 14 17 17 17 17 17 16 16 15 15
3 2 1 1 1 1 2 3 3 5 5 4 5 6 6 6 6 7 7 7 7 6 6 7 6 7 8 11 16 17 17 17 17 17 16 16 16 15
3 3 2 2 2 1 1 1 2 3 4 3 3 5 5 5 5 6 6 6 6 5 3 5 6 6 8 10 14 15 16 16 17 17 16 17 16 15
1 2 2 2 3 2 0 1 2 3 4 5 6 7 8 9 7 4 4 5 6 5 2 2 4 6 7 6 9 13 14 16 18 17 17 17 16 14
1 1 2 2 3 2 1 1 3 3 3 4 5 6 6 6 7 4 3 4 5 4 2 3 4 5 5 4 5 8 10 14 16 16 16 17 15 10
1 1 1 2 2 2 2 2 3 3 2 2 3 4 4 4 4 4 3 3 4 4 4 4 4 4 4 5 5 6 7 7 10 11 14 15 14 10
2 1 1 2 2 2 2 2 2 2 1 2 3 4 4 5 5 5 5 5 5 6 8 6 4 5 5 6 6 6 6 7 7 8 9 12 12 11
1 1 1 1 2 2 2 2 2 1 1 2 3 4 4 4 5 5 5 5 5 5 6 5 5 5 5 5 6 6 7 6 6 6 7 7 6 6
1 1 1 2 3 3 2 2 2 1 2 2 3 4 4 4 4 4 5 5 5 5 5 6 5 5 4 6 6 7 6 5 6 7 6 6 6 6
2 2 2 1 2 2 2 2 2 2 2 2 3 4 4 4 4 4 4 4 4 6 7 6 6 5 4 5 5 6 6 6 6 6 6 6 6 5
2 2 1 0 0 1 1 2 2 2 3 3 3 3 4 4 4 4 4 4 5 5 6 6 7 6 4 2 3 5 5 5 6 6 4 5 7 6
2 1 0 0 1 1 1 2 2 3 3 3 3 3 3 4 4 4 4 4 5 5 5 5 5 5 5 6 5 3 4 6 6 5 5 4 5 7
1 1 0 0 1 1 1 2 2 2 3 3 3 3 3 3 4 4 4 5 5 5 6 5 4 4 3 5 5 5 6 5 4 6 6 5 5 7
0 0 0 1 1 1 1 2 2 2 3 3 3 3 3 3 3 4 4 5 5 5 5 6 6 8 4 3 4 5 5 7 6 4 5 5 4 4
1 0 1 1 1 1 1 2 2 2 2 2 3 3 3 3 3 4 4 4 4 4 5 5 6 5 3 3 4 6 6 7 9 9 6 4 2 3
1 1 1 1 1 1 1 2 2 3 2 2 2 3 3 3 3 3 3 4 4 4 5 5 5 4 3 3 4 4 6 7 6 7 5 8 8 7
Wind_Direction
168 168 167 179 175 189 189 191 200 285 299 285 301 311 330 331 330 335 333 331 334 336 336 335 334 333 332 331 331 332 330 329 328 326 325 324 322 319
165 162 170 190 184 189 191 202 206 222 273 280 288 303 318 324 328 335 332 330 333 334 333 333 332 332 332 333 334 333 330 329 328 327 326 325 324 323
168 173 186 190 188 196 192 205 231 229 270 292 292 304 308 314 325 329 328 328 327 330 330 331 332 333 334 335 335 334 332 330 329 328 327 326 324 324
180 176 188 182 186 185 197 234 259 255 259 290 304 309 305 309 316 317 324 325 325 325 329 332 334 335 335 336 337 337 335 333 331 329 327 327 327 327
181 185 192 179 197 217 227 243 269 285 278 285 301 306 306 312 318 316 314 318 324 328 329 333 335 335 336 337 337 337 336 334 333 331 329 329 329 329
182 188 191 193 205 214 232 236 258 300 308 301 303 307 309 311 317 321 322 324 323 327 327 330 332 333 334 337 338 337 336 335 334 333 332 331 331 330
173 187 200 208 220 230 249 243 245 281 299 303 304 310 314 322 321 316 316 318 316 319 320 324 326 328 330 333 336 335 335 335 335 335 334 333 333 332
180 201 217 211 229 262 277 280 275 276 286 293 300 302 306 307 308 311 315 321 317 330 328 315 321 316 323 328 331 333 335 336 336 337 336 335 334 333
182 190 228 232 245 228 289 308 301 301 290 283 288 291 295 299 303 306 309 310 303 309 318 305 314 312 316 320 327 332 336 339 339 338 339 339 339 336
185 189 197 211 238 245 309 320 308 305 299 297 278 284 290 293 290 293 298 303 296 301 312 301 309 306 311 314 321 331 337 340 341 341 341 341 338 336
190 188 188 204 249 287 319 302 316 320 329 325 316 315 315 317 318 318 317 318 314 313 314 301 302 306 303 299 317 331 337 340 340 340 340 340 338 336
190 205 219 234 252 280 254 245 287 306 322 334 339 335 334 329 329 323 301 303 308 308 306 315 306 321 314 297 305 325 331 332 335 337 339 339 338 340
186 235 252 264 270 284 293 265 282 309 317 327 329 331 333 335 335 334 312 284 289 287 296 311 303 306 294 302 306 311 322 326 331 331 334 336 339 344
199 220 247 270 299 315 329 319 332 352 348 339 334 330 330 328 325 326 318 307 284 275 284 290 288 294 303 303 305 314 318 321 327 328 332 335 339 342
184 212 267 311 359 1 359 3 8 8 345 334 323 317 315 311 316 320 321 322 314 306 300 295 287 288 286 290 300 307 312 316 327 331 333 333 332 338
112 124 82 60 34 15 14 15 1 330 325 309 311 313 316 319 321 323 323 326 326 323 328 328 313 290 287 287 290 299 305 309 323 329 328 324 334 339
118 95 77 57 38 24 12 8 0 355 347 333 323 322 323 327 326 329 327 330 331 328 329 333 333 312 272 275 296 301 308 309 313 325 330 330 331 336
109 122 105 52 12 350 344 345 345 338 333 326 320 318 322 327 330 332 334 335 333 329 329 330 332 334 332 311 270 291 314 314 320 327 328 326 328 336
101 133 146 283 316 323 323 324 320 318 319 316 312 314 321 327 329 335 339 338 335 331 329 330 338 346 346 335 322 317 316 321 327 330 329 315 310 318
104 145 184 264 306 314 315 321 323 325 325 320 317 318 323 327 331 336 335 332 331 331 333 337 342 340 323 307 305 310 321 312 316 322 324 315 300 303
88 94 257 266 288 305 311 311 305 302 306 313 317 317 323 328 328 330 330 332 335 336 337 332 319 319 307 309 313 319 326 333 324 306 314 320 323 333
179 224 282 285 288 294 301 301 303 301 303 309 314 319 323 322 323 325 329 333 335 334 327 322 325 335 351 345 328 322 328 336 343 341 325 308 299 322
216 235 260 271 275 273 281 287 296 303 304 304 309 315 316 317 323 325 326 330 331 334 336 335 340 346 341 331 327 328 334 339 344 350 346 341 330 311
Height
1505 1506 1506 1507 1507 1507 1507 1506 1505 1502 1499 1497 1497 1496 1494 1491 1488 1485 1482 1479 1476 1472 1469 1466 1462 1459 1456 1452 1449 1446 1443 1439 1436 1433 1430 1427 1424 1421
1503 1503 1504 1504 1504 1505 1504 1504 1503 1501 1497 1494 1494 1492 1490 1488 1485 1482 1479 1476 1473 1469 1465 1462 1459 1455 1452 1448 1445 1442 1438 1435 1432 1429 1426 1423 1420 1417
1500 1501 1501 1501 1501 1501 1501 1501 1500 1498 1495 1492 1491 1489 1487 1484 1481 1479 1476 1472 1469 1466 1462 1458 1455 1452 1448 1445 1441 1438 1435 1431 1428 1425 1422 1419 1416 1413
1497 1498 1498 1498 1498 1498 1498 1497 1496 1495 1493 1489 1487 1485 1483 1481 1478 1475 1472 1469 1466 1462 1459 1455 1452 1448 1445 1441 1437 1434 1431 1427 1424 1421 1418 1415 1412 1409
1494 1495 1495 1495 1495 1495 1494 1493 1493 1492 1490 1487 1483 1482 1479 1477 1474 1471 1469 1466 1463 1459 1455 1452 1448 1445 1441 1438 1434 1430 1427 1424 1421 1417 1414 1411 1408 1405
1491 1492 1492 1492 1492 1491 1491 1490 1489 1488 1486 1484 1481 1478 1476 1474 1471 1467 1464 1462 1459 1455 1452 1449 1445 1442 1439 1435 1431 1427 1424 1421 1417 1414 1411 1408 1405 1402
1488 1489 1489 1489 1488 1488 1488 1487 1486 1484 1483 1481 1478 1475 1473 1470 1468 1464 1461 1458 1455 1452 1448 1445 1442 1439 1436 1432 1428 1425 1421 1418 1415 1411 1408 1405 1402 1399
1485 1485 1486 1485 1485 1485 1485 1484 1483 1482 1480 1478 1475 1473 1470 1468 1465 1462 1459 1455 1451 1449 1445 1442 1439 1436 1433 1429 1426 1422 1419 1415 1412 1409 1405 1402 1399 1396
1482 1482 1482 1482 1482 1482 1481 1480 1480 1479 1478 1476 1473 1470 1468 1465 1462 1459 1457 1453 1450 1446 1443 1438 1436 1433 1430 1427 1423 1420 1416 1413 1410 1406 1403 1399 1396 1393
1479 1479 1479 1479 1479 1478 1477 1477 1476 1475 1474 1472 1470 1468 1466 1463 1460 1458 1454 1451 1447 1444 1441 1436 1433 1430 1427 1424 1421 1417 1414 1411 1407 1404 1400 1397 1394 1391
1475 1476 1476 1476 1476 1475 1474 1473 1472 1471 1470 1469 1467 1465 1463 1461 1458 1455 1451 1448 1443 1441 1439 1435 1430 1427 1423 1421 1418 1415 1412 1409 1405 1401 1398 1394 1391 1388
1472 1472 1473 1473 1472 1472 1471 1470 1469 1468 1466 1465 1464 1462 1460 1457 1455 1452 1449 1446 1442 1438 1436 1433 1429 1426 1420 1417 1415 1412 1409 1406 1403 1399 1396 1392 1389 1386
1469 1469 1470 1470 1469 1469 1469 1468 1467 1465 1463 1462 1460 1458 1456 1454 1452 1449 1447 1444 1441 1437 1435 1432 1428 1425 1422 1416 1412 1410 1407 1403 1400 1397 1394 1391 1388 1385
1466 1467 1467 1467 1467 1466 1466 1465 1464 1463 1461 1459 1457 1455 1453 1451 1449 1446 1444 1442 1439 1436 1433 1430 1427 1424 1420 1415 1411 1408 1405 1402 1399 1395 1392 1390 1387 1384
1463 1464 1464 1464 1464 1463 1463 1462 1461 1460 1458 1457 1455 1453 1451 1449 1446 1444 1441 1439 1437 1434 1431 1428 1425 1422 1419 1415 1411 1407 1403 1400 1398 1395 1392 1389 1386 1383
1461 1461 1461 1461 1461 1461 1460 1459 1459 1458 1456 1455 1453 1451 1449 1447 1445 1442 1439 1437 1434 1431 1429 1426 1423 1420 1417 1414 1410 1406 1403 1400 1397 1394 1391 1388 1385 1383
1458 1458 1458 1458 1458 1458 1457 1457 1456 1455 1454 1453 1451 1449 1447 1445 1443 1441 1438 1435 1432 1429 1426 1424 1421 1418 1415 1413 1409 1406 1403 1400 1397 1394 1390 1387 1385 1382
1456 1456 1456 1456 1455 1455 1455 1454 1454 1453 1452 1451 1450 1448 1446 1444 1441 1439 1437 1434 1431 1428 1425 1422 1419 1416 1414 1411 1409 1405 1402 1399 1396 1394 1391 1387 1384 1382
1453 1453 1454 1454 1453 1453 1453 1453 1452 1452 1451 1450 1448 1446 1444 1443 1440 1438 1436 1433 1430 1427 1424 1422 1419 1415 1412 1409 1407 1406 1402 1399 1396 1393 1391 1388 1384 1382
1451 1451 1451 1451 1451 1451 1451 1451 1450 1450 1449 1448 1446 1445 1443 1442 1439 1437 1435 1432 1429 1427 1424 1421 1419 1416 1413 1411 1407 1405 1403 1399 1396 1393 1390 1388 1385 1383
1449 1449 1450 1450 1450 1450 1450 1449 1449 1448 1447 1446 1445 1443 1442 1440 1438 1436 1434 1431 1429 1426 1423 1421 1419 1417 1414 1411 1408 1404 1403 1400 1397 1394 1391 1388 1385 1383
1447 1447 1448 1448 1448 1448 1448 1447 1447 1446 1445 1444 1443 1442 1441 1439 1437 1435 1433 1431 1428 1426 1423 1421 1419 1416 1414 1411 1408 1405 1402 1400 1398 1396 1393 1390 1387 1383
1445 1446 1446 1446 1446 1446 1446 1445 1445 1444 1444 1443 1442 1441 1439 1438 1436 1434 1432 1430 1428 1425 1423 1420 1418 1416 1414 1411 1409 1406 1403 1401 1398 1396 1394 1392 1389 1387